Weather History for Malaga, Spain

Change the Weather History Date:

Wednesday, November 28, 2012

  Actual Average Record
Temperature  
Mean Temperature 50 °F -  
Max Temperature 58 °F 60 °F 73 °F (1998)
Min Temperature 42 °F 46 °F 39 °F (2008)
Degree Days  
Heating Degree Days 15    
Moisture  
Dew Point 38 °F    
Average Humidity 64    
Maximum Humidity 87    
Minimum Humidity 40    
Precipitation  
Precipitation 0.00 in 0.13 in - ()
Sea Level Pressure  
Sea Level Pressure 29.87 in    
Wind  
Wind Speed 12 mph ()    
Max Wind Speed 22 mph    
Max Gust Speed 30 mph    
Visibility 6.4 miles    
Events      
Averages and records for this station are not official NWS values.
T = Trace of Precipitation, MM = Missing Value Source: Averaged Metar Reports

Daily Weather History Graph

Daily Weather History Graph

Search for Another Location

Airport:

Trip Planner

Search our weather history database for the weather conditions in past years. The results will help you decide how hot, cold, wet, or windy it might be!

Date:

Astronomy

Nov. 28, 2012 Rise Set
Actual Time 8:09 AM CET 6:02 PM CET
Civil Twilight 7:40 AM CET 6:31 PM CET
Nautical Twilight 7:08 AM CET 7:02 PM CET
Astronomical Twilight 6:37 AM CET 7:34 PM CET
Moon 6:07 PM CET (11/28) 7:54 AM CET (11/28)
Length of Visible Light 10h 50m
Length of Day
9h 53m
Full, 100% of the Moon is Illuminated
Nov 28
Full
Nov 28
Full
Dec 6
Last Quarter
Dec 13
New
Dec 20
First Quarter

Hourly Weather History & Observations

Time (CET) Temp. Windchill Dew Point Humidity Pressure Visibility Wind Dir Wind Speed Gust Speed Precip Events Conditions
12:00 AM 48.2 °F - 41.0 °F 76% 29.86 in 6.2 mi West 10.4 mph - N/A   Scattered Clouds
12:30 AM 46.4 °F 41.9 °F 41.0 °F 81% 29.86 in 6.2 mi WNW 9.2 mph - N/A   Partly Cloudy
1:00 AM 47 °F - 41 °F 73% 29.86 in 9 mi West 10.4 mph - -   Partly Cloudy
1:30 AM 48.2 °F - 39.2 °F 71% 29.83 in 6.2 mi West 11.5 mph - N/A   Partly Cloudy
2:00 AM 46.4 °F 41.5 °F 39.2 °F 76% 29.83 in 6.2 mi WNW 10.4 mph - N/A   Partly Cloudy
2:30 AM 48.2 °F - 39.2 °F 71% 29.83 in 6.2 mi West 10.4 mph - N/A   Partly Cloudy
3:00 AM 46.4 °F 41.9 °F 39.2 °F 76% 29.83 in 6.2 mi WNW 9.2 mph - N/A   Partly Cloudy
4:00 AM 46.4 °F 40.7 °F 37.4 °F 71% 29.83 in - West 12.7 mph - N/A   Clear
4:30 AM 44.6 °F 39.7 °F 37.4 °F 76% 29.83 in - WNW 9.2 mph - N/A   Clear
5:00 AM 46.4 °F 41.5 °F 39.2 °F 76% 29.83 in - WNW 10.4 mph - N/A   Clear
5:30 AM 42.8 °F 38.6 °F 39.2 °F 87% 29.83 in - NW 6.9 mph - N/A   Clear
6:00 AM 44.6 °F 39.2 °F 39.2 °F 81% 29.83 in - WNW 10.4 mph - N/A   Clear
6:30 AM 44.6 °F 39.7 °F 39.2 °F 81% 29.83 in - WNW 9.2 mph - N/A   Clear
7:00 AM 47 °F - 39 °F 67% 29.85 in 9 mi WNW 6.9 mph - -  
7:00 AM 42.8 °F 38.6 °F 39.2 °F 87% 29.83 in - WNW 6.9 mph - N/A   Clear
7:30 AM 44.6 °F 41.4 °F 39.2 °F 81% 29.83 in - WNW 5.8 mph - N/A   Clear
8:00 AM 44.6 °F 40.2 °F 39.2 °F 81% 29.86 in 6.2 mi West 8.1 mph - N/A   Partly Cloudy
9:00 AM 46.4 °F 40.4 °F 39.2 °F 76% 29.86 in 6.2 mi WNW 13.8 mph - N/A   Partly Cloudy
9:30 AM 48.2 °F - 39.2 °F 71% 29.86 in 6.2 mi WNW 15.0 mph - N/A   Partly Cloudy
10:00 AM 48.2 °F - 41.0 °F 76% 29.89 in 6.2 mi NW 13.8 mph - N/A   Partly Cloudy
10:30 AM 50.0 °F - 41.0 °F 71% 29.89 in 6.2 mi NW 15.0 mph - N/A   Partly Cloudy
11:00 AM 51.8 °F - 41.0 °F 67% 29.89 in 6.2 mi NW 13.8 mph - N/A   Partly Cloudy
11:30 AM 51.8 °F - 41.0 °F 67% 29.92 in 6.2 mi WNW 10.4 mph - N/A   Partly Cloudy
12:00 PM 53.6 °F - 41.0 °F 62% 29.89 in 6.2 mi NW 12.7 mph - N/A   Partly Cloudy
12:30 PM 53.6 °F - 39.2 °F 58% 29.89 in 6.2 mi WNW 15.0 mph 27.6 mph N/A   Partly Cloudy
1:00 PM 55 °F - 37 °F 40% 29.91 in 25 mi WNW 12.7 mph - -   Scattered Clouds
1:00 PM 55.4 °F - 39.2 °F 54% 29.89 in 6.2 mi WNW 12.7 mph 27.6 mph N/A   Partly Cloudy
1:30 PM 55.4 °F - 41.0 °F 58% 29.89 in 6.2 mi WNW 16.1 mph - N/A   Partly Cloudy
2:00 PM 55.4 °F - 39.2 °F 54% 29.89 in 6.2 mi WNW 16.1 mph - N/A   Partly Cloudy
2:30 PM 57.2 °F - 39.2 °F 51% 29.86 in 6.2 mi WNW 13.8 mph 26.5 mph N/A   Partly Cloudy
3:00 PM 55.4 °F - 39.2 °F 54% 29.86 in 6.2 mi WNW 13.8 mph 28.8 mph N/A   Partly Cloudy
3:30 PM 55.4 °F - 37.4 °F 51% 29.86 in 6.2 mi WNW 17.3 mph - N/A   Partly Cloudy
4:00 PM 55.4 °F - 37.4 °F 51% 29.86 in 6.2 mi WNW 18.4 mph - N/A   Partly Cloudy
4:30 PM 55.4 °F - 37.4 °F 51% 29.86 in 6.2 mi WNW 18.4 mph - N/A   Partly Cloudy
5:00 PM 55.4 °F - 39.2 °F 54% 29.86 in 6.2 mi WNW 16.1 mph 29.9 mph N/A   Partly Cloudy
5:30 PM 53.6 °F - 37.4 °F 54% 29.86 in 6.2 mi WNW 18.4 mph - N/A   Partly Cloudy
6:00 PM 51.8 °F - 39.2 °F 62% 29.86 in 6.2 mi WNW 17.3 mph - N/A   Partly Cloudy
6:30 PM 51.8 °F - 37.4 °F 58% 29.89 in 6.2 mi WNW 18.4 mph - N/A   Partly Cloudy
7:00 PM 53 °F - 36 °F 41% 29.89 in 25 mi WNW 19.6 mph - -   Scattered Clouds
7:00 PM 51.8 °F - 37.4 °F 58% 29.89 in 6.2 mi WNW 19.6 mph - N/A   Partly Cloudy
7:30 PM 51.8 °F - 35.6 °F 54% 29.89 in - WNW 19.6 mph - N/A   Clear
8:00 PM 51.8 °F - 35.6 °F 54% 29.89 in - WNW 18.4 mph - N/A   Clear
8:30 PM 51.8 °F - 35.6 °F 54% 29.89 in - WNW 19.6 mph - N/A   Clear
9:00 PM 51.8 °F - 35.6 °F 54% 29.89 in - WNW 21.9 mph - N/A   Clear
9:30 PM 50.0 °F - 35.6 °F 58% 29.92 in - WNW 20.7 mph - N/A   Clear
10:00 PM 51.8 °F - 35.6 °F 54% 29.92 in - WNW 20.7 mph - N/A   Clear
10:30 PM 50.0 °F - 35.6 °F 58% 29.92 in - WNW 20.7 mph - N/A   Clear
11:00 PM 51.8 °F - 35.6 °F 54% 29.92 in - WNW 19.6 mph - N/A   Clear
11:30 PM 51.8 °F - 35.6 °F 54% 29.92 in - WNW 19.6 mph - N/A   Clear